[[{"header":{"parameterUnit":"m.s-1","parameterCategory":1,"la1":30.2991,"la2":30.254,"lo1":-89.0895,"lo2":-89.0444,"dy":0.0017,"dx":0.0017,"nx":28,"ny":28,"refTime":"2023-05-26T21:00:00:Z","depth":0,"parameterNumber":2,"parameterNumberName":"U-component_of_WINDS"},"data":[0,0,0,0,0,0,0,0,0,0,0,0,0,0,0,0,0,0,0,0,0,0,0,0,0,0,0,0,0,0,0,0,0,0,0,0,0,0,0,0,0,0,0,0,0,0,0,0,0,0,0,0,0,0,0,0,0,0,-3.2056,-3.2055,0,-3.1972,-3.1971,-3.197,-3.1816,-3.1813,-3.181,-3.1807,-3.1725,-3.1725,-3.1726,0,0,0,0,0,0,0,0,0,0,0,0,0,-3.2089,-3.2089,-3.2056,-3.2055,-3.2054,-3.1972,-3.1971,-3.1969,-3.1816,-3.1813,-3.1809,-3.1806,-3.1725,-3.1725,-3.1726,0,0,0,0,0,0,0,0,0,0,0,0,0,-3.2047,-3.2089,-3.2056,-3.1967,-3.1959,-3.1972,-3.1971,-3.1969,-3.1817,-3.1813,-3.1808,-3.1804,-3.1724,-3.1725,-3.1726,-3.182,0,0,-3.1728,-3.1729,0,0,0,0,0,0,0,0,-3.2049,-3.2046,-3.1982,-3.1974,-3.1964,-3.19,-3.1952,-3.1919,-3.1818,-3.1871,-3.1807,-3.1802,-3.1787,-3.1782,-3.1776,-3.1816,-3.1812,-3.1729,-3.1729,-3.1729,-3.173,0,0,0,0,0,0,0,-3.2052,-3.2048,-3.2022,-3.1981,-3.197,-3.1933,-3.1922,-3.1945,-3.1855,-3.1866,-3.1855,-3.1847,-3.1781,-3.1776,-3.1773,-3.1811,-3.1729,-3.1729,-3.173,-3.173,-3.1926,-3.1931,0,0,0,0,0,0,-3.2068,-3.2052,-3.2025,-3.202,-3.1996,-3.1936,-3.1924,-3.1925,-3.1854,-3.1839,-3.1851,-3.184,-3.1777,-3.1772,-3.177,-3.1876,-3.1729,-3.173,-3.1731,-3.1922,-3.1927,-3.1932,0,0,0,0,0,0,-3.2069,-3.2067,-3.2029,-3.2033,-3.2025,-3.194,-3.1942,-3.1925,-3.192,-3.1842,-3.1826,-3.1861,-3.1773,-3.1768,-3.1809,-3.1871,-3.1731,-3.1731,-3.1916,-3.1923,-3.193,-3.209,0,0,0,0,0,0,-3.207,-3.2068,-3.2102,-3.2035,-3.2025,-3.2068,-3.1946,-3.1927,-3.1921,-3.1907,-3.1848,-3.1834,-3.1769,-3.1808,-3.181,-3.187,-3.1732,-3.191,-3.1919,-3.1928,-3.2079,-3.2102,-3.2121,0,0,0,0,0,-3.2072,-3.2151,-3.2104,-3.2102,-3.2066,-3.2072,-3.2067,-3.1989,-3.1927,-3.1961,-3.1912,-3.1836,-3.1864,-3.1814,-3.1814,-3.1875,-3.1906,-3.1917,-3.1927,-3.2069,-3.2097,-3.2121,0,0,0,0,0,0,-3.2228,-3.214,-3.2088,-3.2146,-3.2118,-3.2046,-3.2086,-3.2021,-3.201,-3.1997,-3.1902,-3.189,-3.1944,-3.1913,-3.1859,-3.1964,-3.1873,-3.1884,-3.1982,-3.2007,-3.2028,-3.2035,-3.1733,0,0,0,0,0,-3.2269,-3.2281,-3.2203,-3.2263,-3.2251,-3.2172,-3.2172,-3.2114,-3.2081,-3.2069,-3.2022,-3.1994,-3.1996,-3.2,-3.1998,-3.2074,-3.206,-3.2116,-3.2137,-3.2155,-3.2166,-3.2206,-3.2231,-3.1967,-3.1967,-3.1967,0,0,-3.2355,-3.2308,-3.2321,-3.2293,-3.2264,-3.228,-3.2163,-3.2183,-3.2195,-3.2072,-3.2107,-3.2073,-3.2035,-3.2094,-3.2118,-3.2071,-3.2236,-3.2169,-3.2184,-3.2185,-3.222,-3.2245,-3.2267,-3.1974,-3.1973,-3.1972,0,0,-3.2518,-3.2483,-3.2529,-3.2503,-3.246,-3.2407,-3.2419,-3.2357,-3.2329,-3.2363,-3.2272,-3.2284,-3.229,-3.2268,-3.2257,-3.2415,-3.2346,-3.2417,-3.2528,-3.2568,-3.2589,-3.2607,-3.2665,-3.2686,-3.2428,-3.2428,-3.2428,0,-3.263,-3.2648,-3.2562,-3.2589,-3.258,-3.2469,-3.2517,-3.2496,-3.2456,-3.2453,-3.24,-3.2406,-3.2373,-3.2426,-3.2465,-3.246,-3.2471,-3.2423,-3.2592,-3.261,-3.2625,-3.2679,-3.2701,-3.2437,-3.2436,-3.2435,-3.2434,0,-3.2788,-3.2802,-3.2845,-3.2808,-3.2804,-3.2842,-3.2763,-3.277,-3.2714,-3.2667,-3.2704,-3.2661,-3.2649,-3.2657,-3.2602,-3.2703,-3.2675,-3.2609,-3.2517,-3.2661,-3.271,-3.273,-3.245,-3.2447,-3.2444,-3.2442,0,0,-3.3047,-3.2963,-3.298,-3.2963,-3.2908,-3.2919,-3.2952,-3.2939,-3.2948,-3.2924,-3.2951,-3.296,-3.2898,-3.2887,-3.2828,-3.2864,-3.2993,-3.2793,-3.279,-3.2833,-3.3104,-3.3156,-3.3181,-3.2947,-3.2951,-3.2953,-3.3108,0,-3.3199,-3.325,-3.3174,-3.3243,-3.3256,-3.3152,-3.3181,-3.3153,-3.311,-3.3117,-3.307,-3.3078,-3.2996,-3.2988,-3.3018,-3.2971,-3.3047,-3.2959,-3.2973,-3.2975,-3.2987,-3.3206,-3.326,-3.3408,-3.3127,-3.313,-3.3132,0,-3.3383,-3.3369,-3.3439,-3.3382,-3.3384,-3.3412,-3.3395,-3.3402,-3.3368,-3.3335,-3.3323,-3.3254,-3.3285,-3.3195,-3.3237,-3.3179,-3.318,-3.3159,-3.3162,-3.3161,-3.3063,-3.3213,-3.3453,-3.3476,-3.3161,-3.3159,-3.3157,0,-3.3567,-3.3565,-3.3606,-3.3595,-3.3529,-3.3551,-3.3525,-3.3486,-3.3484,-3.347,-3.3468,-3.3459,-3.3454,-3.3449,-3.338,-3.3321,-3.3432,-3.3336,-3.3407,-3.3409,-3.3436,-3.3435,-3.3681,-3.3435,-3.3435,-3.3435,-3.3434,0,-3.3746,-3.3793,-3.3688,-3.3714,-3.3765,-3.3678,-3.3732,-3.3695,-3.3662,-3.368,-3.359,-3.361,-3.3517,-3.3527,-3.3474,-3.3518,-3.3516,-3.3492,-3.3477,-3.3501,-3.3504,-3.3501,-3.3489,-3.344,-3.3439,-3.3438,-3.3437,0,-3.3959,-3.3891,-3.393,-3.3864,-3.3849,-3.389,-3.3835,-3.3857,-3.3809,-3.3834,-3.3835,-3.3761,-3.3768,-3.3699,-3.3694,-3.3658,-3.3728,-3.3695,-3.3739,-3.3729,-3.3805,-3.38,-3.4058,-3.4089,-3.3823,-3.3826,-3.3828,0,-3.4078,-3.4112,-3.4051,-3.4056,-3.4034,-3.4044,-3.4042,-3.3959,-3.396,-3.3925,-3.3953,-3.3953,-3.3948,-3.3966,-3.3913,-3.3909,-3.3876,-3.3967,-3.3875,-3.3898,-3.3879,-3.3878,-3.3882,-3.3986,-3.399,-3.3992,-3.3995,0,-3.4297,-3.4262,-3.4261,-3.4249,-3.4249,-3.4236,-3.4217,-3.4227,-3.4137,-3.4144,-3.415,-3.4147,-3.4141,-3.4144,-3.4129,-3.4104,-3.4036,-3.4024,-3.4041,-3.4065,-3.409,-3.4079,-3.3793,-3.4019,-3.4016,-3.4014,-3.4013,-3.4012,-3.4468,-3.4494,-3.4455,-3.4458,-3.4435,-3.442,-3.4438,-3.4393,-3.4396,-3.4385,-3.4336,-3.4352,-3.4319,-3.4293,-3.4274,-3.4287,-3.4243,-3.4266,-3.4273,-3.428,-3.4295,-3.4088,-3.4284,-3.4283,-3.4282,-3.4282,-3.4281,0,-3.4683,-3.4653,-3.4657,-3.4633,-3.4636,-3.457,-3.4546,-3.4554,-3.4568,-3.4543,-3.4541,-3.4549,-3.4551,-3.4499,-3.4495,-3.4515,-3.4484,-3.4517,-3.4515,-3.4511,-3.4333,-3.432,-3.4542,-3.4542,-3.4542,-3.4542,-3.4542,-3.4542,-3.4796,-3.4837,-3.4797,-3.4827,-3.4797,-3.4811,-3.4803,-3.479,-3.4769,-3.4783,-3.4784,-3.4749,-3.4714,-3.4706,-3.4706,-3.4691,-3.4694,-3.4739,-3.4713,-3.4549,-3.4523,-3.4499,-3.4486,-3.474,-3.474,-3.489,-3.4891,-3.4892]},{"header":{"parameterUnit":"m.s-1","parameterCategory":1,"la1":30.2991,"la2":30.254,"lo1":-89.0895,"lo2":-89.0444,"dy":0.0017,"dx":0.0017,"nx":28,"ny":28,"refTime":"2023-05-26T21:00:00:Z","depth":0,"parameterNumber":3,"parameterNumberName":"V-component_of_WINDS"},"data":[0,0,0,0,0,0,0,0,0,0,0,0,0,0,0,0,0,0,0,0,0,0,0,0,0,0,0,0,0,0,0,0,0,0,0,0,0,0,0,0,0,0,0,0,0,0,0,0,0,0,0,0,0,0,0,0,0,0,0.7529,0.7528,0,0.7505,0.7505,0.7505,0.7519,0.752,0.7521,0.7521,0.7493,0.7492,0.7491,0,0,0,0,0,0,0,0,0,0,0,0,0,0.7582,0.7581,0.7529,0.7528,0.7528,0.7505,0.7505,0.7505,0.7519,0.752,0.7521,0.7522,0.7494,0.7492,0.749,0,0,0,0,0,0,0,0,0,0,0,0,0,0.7559,0.7581,0.7529,0.7533,0.7533,0.7506,0.7505,0.7505,0.7519,0.752,0.7521,0.7522,0.7494,0.7492,0.749,0.7457,0,0,0.7484,0.7483,0,0,0,0,0,0,0,0,0.756,0.7557,0.7532,0.7532,0.7532,0.7516,0.7514,0.7488,0.7519,0.7524,0.7521,0.7523,0.75,0.7497,0.7491,0.7455,0.7454,0.7484,0.7482,0.7482,0.7481,0,0,0,0,0,0,0,0.7562,0.7558,0.7519,0.7532,0.7532,0.7534,0.7532,0.7509,0.7506,0.7524,0.7525,0.7522,0.75,0.7493,0.749,0.7454,0.7484,0.7482,0.7481,0.748,0.7389,0.7388,0,0,0,0,0,0,0.7564,0.7559,0.752,0.7519,0.7549,0.7533,0.753,0.752,0.7507,0.7506,0.7521,0.7523,0.7496,0.7493,0.7489,0.7448,0.7482,0.748,0.7478,0.7391,0.7389,0.7388,0,0,0,0,0,0,0.7565,0.756,0.7521,0.7539,0.7534,0.7531,0.7519,0.7519,0.7512,0.7505,0.7504,0.7514,0.7496,0.7492,0.7465,0.7448,0.7479,0.7477,0.7392,0.739,0.7389,0.7367,0,0,0,0,0,0,0.7566,0.756,0.7548,0.7539,0.7533,0.7498,0.7518,0.7518,0.7509,0.7511,0.7498,0.7497,0.7497,0.7468,0.7463,0.7445,0.7475,0.7393,0.7391,0.7389,0.7369,0.7364,0.7361,0,0,0,0,0,0.7568,0.7542,0.7547,0.7543,0.7518,0.7497,0.7494,0.7495,0.7507,0.7495,0.749,0.7497,0.7451,0.7465,0.7459,0.7441,0.7394,0.7392,0.7389,0.7371,0.7365,0.7361,0,0,0,0,0,0,0.7547,0.7541,0.7547,0.7517,0.7508,0.7499,0.7483,0.749,0.7475,0.7477,0.7479,0.7476,0.7448,0.7442,0.7458,0.7408,0.7424,0.7421,0.7412,0.7407,0.7403,0.7404,0.7473,0,0,0,0,0,0.754,0.7524,0.7519,0.7493,0.7488,0.7487,0.7477,0.748,0.7469,0.7465,0.7459,0.7447,0.743,0.7418,0.7402,0.7369,0.7366,0.7354,0.7349,0.7346,0.7342,0.7323,0.7317,0.7379,0.738,0.738,0,0,0.7523,0.7517,0.7507,0.7489,0.7482,0.7464,0.7483,0.7464,0.745,0.7462,0.7436,0.7431,0.7418,0.7388,0.7374,0.7382,0.7325,0.7343,0.734,0.7338,0.732,0.7314,0.7309,0.7378,0.7378,0.7378,0,0,0.7483,0.7478,0.7456,0.7449,0.7439,0.7438,0.7433,0.7424,0.7422,0.7396,0.7404,0.7388,0.7359,0.735,0.7341,0.73,0.7305,0.7294,0.7272,0.7253,0.7248,0.7244,0.7228,0.7222,0.7291,0.7291,0.7291,0,0.7463,0.7438,0.7443,0.7424,0.7415,0.7427,0.7404,0.7396,0.7381,0.7374,0.7384,0.7348,0.734,0.7307,0.7297,0.7291,0.7284,0.7294,0.7249,0.7245,0.7241,0.7225,0.7219,0.7289,0.7289,0.729,0.729,0,0.7413,0.7396,0.7379,0.7365,0.7355,0.7334,0.7335,0.7324,0.7328,0.7326,0.7299,0.7291,0.7274,0.7267,0.7269,0.7234,0.7239,0.7249,0.7266,0.7233,0.7219,0.7213,0.7287,0.7288,0.7288,0.7289,0,0,0.7357,0.7348,0.7342,0.7336,0.7326,0.7312,0.7292,0.7276,0.7266,0.7255,0.7237,0.7213,0.7222,0.7213,0.7215,0.7199,0.7166,0.7211,0.7211,0.7201,0.7125,0.7116,0.7109,0.7171,0.7169,0.7169,0.7125,0,0.7316,0.728,0.7285,0.7251,0.7235,0.7246,0.7228,0.722,0.7218,0.7203,0.7201,0.7183,0.7198,0.7192,0.7177,0.7173,0.715,0.7176,0.7152,0.7151,0.7152,0.7102,0.7092,0.7051,0.712,0.7119,0.7118,0,0.7262,0.7251,0.7215,0.7209,0.7202,0.7186,0.7172,0.7158,0.7149,0.7149,0.7139,0.7144,0.7122,0.7142,0.7111,0.7129,0.7119,0.7116,0.7114,0.711,0.7131,0.7094,0.7039,0.7032,0.711,0.711,0.7111,0,0.7223,0.7199,0.7175,0.7169,0.7162,0.715,0.7146,0.7138,0.7128,0.7116,0.711,0.7095,0.7086,0.7074,0.7075,0.7089,0.7043,0.7062,0.7041,0.7041,0.7029,0.7029,0.6969,0.7026,0.7026,0.7026,0.7026,0,0.7174,0.7152,0.7157,0.7142,0.7117,0.7123,0.7097,0.7095,0.7088,0.7071,0.7081,0.7065,0.7069,0.7053,0.7054,0.7027,0.7024,0.7022,0.7022,0.702,0.702,0.7012,0.7014,0.7025,0.7025,0.7025,0.7026,0,0.7125,0.7128,0.7102,0.7098,0.7096,0.7077,0.7073,0.7058,0.7058,0.7038,0.7033,0.7032,0.7014,0.7015,0.6994,0.6994,0.6962,0.6966,0.6965,0.6965,0.6943,0.6944,0.6874,0.6864,0.693,0.6929,0.6929,0,0.7093,0.7076,0.707,0.7061,0.7056,0.7041,0.7032,0.7037,0.7027,0.7016,0.7002,0.6986,0.6972,0.6943,0.6939,0.6923,0.6926,0.6903,0.6923,0.6922,0.6924,0.6924,0.6921,0.6898,0.6897,0.6896,0.6896,0,0.7035,0.7038,0.7025,0.7012,0.7002,0.6992,0.6983,0.6974,0.6979,0.6967,0.6949,0.6939,0.6919,0.6901,0.6887,0.6881,0.6888,0.689,0.6884,0.688,0.6879,0.6878,0.6952,0.6891,0.6891,0.6892,0.6892,0.6892,0.6992,0.6977,0.6971,0.6957,0.6951,0.6943,0.6929,0.6928,0.6914,0.6898,0.6903,0.6883,0.6874,0.6855,0.6849,0.6833,0.6841,0.6832,0.6829,0.6827,0.6823,0.6884,0.683,0.683,0.683,0.683,0.6831,0,0.6933,0.693,0.6917,0.6905,0.6893,0.6904,0.6895,0.6884,0.6867,0.6859,0.6846,0.6826,0.681,0.6806,0.6791,0.6778,0.6781,0.6773,0.6773,0.6772,0.6818,0.6824,0.6771,0.6771,0.6771,0.6771,0.6771,0.6771,0.6901,0.6877,0.6879,0.6852,0.6849,0.683,0.6824,0.6816,0.681,0.6788,0.6775,0.6774,0.6767,0.6751,0.6737,0.6736,0.6729,0.6719,0.672,0.6763,0.6768,0.6774,0.678,0.6718,0.6718,0.6675,0.6674,0.6674]}]]